Location: Unspecified
(44.5899°N, 128.9834°E)
Time: 02:24:44
(UTC+08:00)

Resurs 01 Rocket - Visible Passes

Search period start: 20 October 2017 00:00
Search period end: 30 October 2017 00:00
Orbit: 634 x 645 km, 98.1° (Epoch: 18 October)

Date Brightness Start Highest point End Pass type
(mag) Time Alt. Az. Time Alt. Az. Time Alt. Az.
20 Oct 2.9 18:09:17 24° NE 18:09:17 24° NE 18:11:57 10° N visible
20 Oct 4.0 19:46:52 21° NW 19:46:52 21° NW 19:48:38 10° NNW visible
21 Oct 2.7 18:33:03 30° NNE 18:33:03 30° NNE 18:35:39 10° N visible
21 Oct 4.6 20:10:38 13° NW 20:10:38 13° NW 20:11:20 10° NW visible
22 Oct 3.0 18:56:50 30° N 18:56:50 30° N 18:59:08 10° N visible
23 Oct 3.4 17:43:01 14° NE 17:43:01 14° NE 17:44:35 10° NNE visible
23 Oct 3.6 19:20:37 24° NNW 19:20:37 24° NNW 19:22:25 10° NNW visible
24 Oct 3.2 18:06:48 19° NNE 18:06:48 19° NNE 18:08:42 10° NNE visible
24 Oct 4.2 19:44:23 17° NW 19:44:23 17° NW 19:45:31 10° NNW visible
25 Oct 3.2 18:30:34 23° NNE 18:30:34 23° NNE 18:32:26 10° N visible
25 Oct 4.8 20:08:09 11° NW 20:08:09 11° NW 20:08:17 10° NW visible
26 Oct 3.5 18:54:20 22° N 18:54:20 22° N 18:55:57 10° N visible
27 Oct 3.7 17:40:31 12° NE 17:40:31 12° NE 17:41:14 10° NNE visible
27 Oct 3.9 19:18:06 18° NNW 19:18:06 18° NNW 19:19:16 10° NNW visible
28 Oct 3.6 18:04:17 15° NNE 18:04:17 15° NNE 18:05:26 10° NNE visible
28 Oct 4.4 19:41:52 13° NNW 19:41:52 13° NNW 19:42:24 10° NNW visible
29 Oct 3.6 18:28:03 17° N 18:28:03 17° N 18:29:13 10° N visible
